{"data":{"norad_id":42829,"epoch":"2026-05-25T04:14:02.903136Z","epoch_age_seconds":49893,"freshness":"FRESH","line1":"1 42829U 17042E   26145.17642249  .00003228  00000+0  23215-3 0  9992","line2":"2 42829  97.4268 303.7165 0018148 167.8642 192.3026 15.04796520483247","mean_motion":15.0479652,"eccentricity":0.0018148,"inclination_deg":97.4268,"raan_deg":303.7165,"arg_perigee_deg":167.8642,"mean_anomaly_deg":192.3026,"bstar":0.00023215,"rev_number":48324,"period_min":95.694001206223,"perigee_km":539.55330741322,"apogee_km":564.70740581078,"semimajor_km":6930.267356612,"source":"CELESTRAK","updated_at":"2026-05-25T13:38:24.897406Z"}}